Volver al catálogo

SL-8 R/B

ActivoPO
NORAD 10732·ROCKET BODY·🇷🇺 Russia

Lanzado Mar 15, 1978 desde Plesetsk Cosmodrome

Loading…

Próximos Pases (próximas 24 horas)

TLE

ActualizadoSource: Space-Track

Época: Sep 14, 2026, 11:08 UTC

1 10732U 78028B   26257.46452935  .00000153  00000-0  14256-3 0  9998
2 10732  82.9284 264.3388 0019439 178.2922 334.4426 13.75610759433559

Sigue SL-8 R/B en tiempo real con AllMySat

Download on the App Store